| time (UTC) | temp C | wind direction | speed KPH | gust KPH | rain 1hr cm | rain 24hr cm | rain mn cm | humidity % | barometer mb |
| 20260507151606 | 12 | 336 | 11.3 | 16.1 | 0.00 | 0.05 | 0.00 | 43 | 1014.0 |
| 20260507145605 | 13 | 317 | 9.7 | 19.3 | 0.00 | 0.05 | 0.00 | 42 | 1014.3 |
| 20260507144605 | 13 | 327 | 4.8 | 22.5 | 0.00 | 0.05 | 0.00 | 44 | 1014.4 |
| 20260507144105 | 13 | 332 | 6.4 | 19.3 | 0.00 | 0.05 | 0.00 | 44 | 1014.4 |
| 20260507143605 | 13 | 355 | 3.2 | 19.3 | 0.00 | 0.05 | 0.00 | 43 | 1014.4 |
| 20260507143105 | 13 | 318 | 12.9 | 22.5 | 0.00 | 0.05 | 0.00 | 46 | 1014.4 |
| 20260507141605 | 12 | 5 | 4.8 | 12.9 | 0.00 | 0.08 | 0.00 | 47 | 1014.6 |
| 20260507141105 | 12 | 4 | 3.2 | 12.9 | 0.00 | 0.10 | 0.00 | 46 | 1014.7 |
| 20260507140604 | 12 | 35 | 4.8 | 9.7 | 0.00 | 0.13 | 0.00 | 48 | 1014.7 |
| 20260507134604 | 12 | 348 | 4.8 | 19.3 | 0.00 | 0.30 | 0.00 | 51 | 1014.9 |
| 20260507133605 | 11 | 317 | 8.0 | 14.5 | 0.00 | 0.33 | 0.00 | 50 | 1015.1 |
| 20260507132604 | 11 | 329 | 8.0 | 16.1 | 0.00 | 0.36 | 0.00 | 52 | 1015.2 |
| 20260507131105 | 11 | 348 | 9.7 | 16.1 | 0.00 | 0.38 | 0.00 | 53 | 1015.2 |
| 20260507130604 | 11 | 324 | 6.4 | 14.5 | 0.00 | 0.38 | 0.00 | 54 | 1015.2 |
| 20260507130105 | 11 | 342 | 4.8 | 14.5 | 0.00 | 0.38 | 0.00 | 56 | 1015.2 |
| 20260507125104 | 11 | 329 | 4.8 | 16.1 | 0.00 | 0.41 | 0.00 | 55 | 1015.2 |
| 20260507124605 | 11 | 335 | 4.8 | 9.7 | 0.00 | 0.43 | 0.00 | 54 | 1015.1 |
| 20260507124104 | 10 | 325 | 8.0 | 16.1 | 0.00 | 0.46 | 0.00 | 55 | 1015.1 |
| 20260507123605 | 10 | 320 | 8.0 | 14.5 | 0.00 | 0.46 | 0.00 | 56 | 1014.9 |
| 20260507123105 | 10 | 334 | 3.2 | 8.0 | 0.00 | 0.48 | 0.00 | 58 | 1014.9 |
| 20260507121605 | 10 | 331 | 1.6 | 8.0 | 0.00 | 0.48 | 0.00 | 57 | 1014.9 |
| 20260507121104 | 10 | 331 | 3.2 | 8.0 | 0.00 | 0.48 | 0.00 | 57 | 1014.8 |
| 20260507120105 | 10 | 329 | 4.8 | 8.0 | 0.00 | 0.51 | 0.00 | 59 | 1014.9 |
| 20260507115105 | 10 | 328 | 3.2 | 8.0 | 0.00 | 0.51 | 0.00 | 59 | 1014.9 |
| 20260507114605 | 10 | 322 | 1.6 | 4.8 | 0.00 | 0.53 | 0.00 | 59 | 1014.9 |
| 20260507114104 | 10 | 322 | 3.2 | 4.8 | 0.00 | 0.53 | 0.00 | 58 | 1014.9 |
| 20260507113604 | 10 | 318 | 4.8 | 8.0 | 0.00 | 0.53 | 0.00 | 58 | 1015.0 |
| 20260507113105 | 10 | 314 | 4.8 | 4.8 | 0.00 | 0.53 | 0.00 | 57 | 1015.0 |
| 20260507112605 | 10 | 309 | 1.6 | 12.9 | 0.00 | 0.53 | 0.00 | 57 | 1014.9 |
| 20260507112105 | 10 | 343 | 1.6 | 8.0 | 0.00 | 0.56 | 0.00 | 57 | 1014.9 |
| 20260507111104 | 10 | 355 | 1.6 | 4.8 | 0.00 | 0.58 | 0.00 | 58 | 1014.8 |
| 20260507105605 | 10 | 355 | 1.6 | 3.2 | 0.00 | 0.58 | 0.00 | 57 | 1014.5 |
| 20260507105104 | 10 | 355 | 0.0 | 0.0 | 0.00 | 0.58 | 0.00 | 57 | 1014.5 |
| 20260507104604 | 10 | 355 | 0.0 | 3.2 | 0.00 | 0.58 | 0.00 | 56 | 1014.4 |
| 20260507102105 | 10 | 355 | 3.2 | 4.8 | 0.00 | 0.58 | 0.00 | 55 | 1014.1 |
| 20260507101105 | 10 | 355 | 1.6 | 4.8 | 0.00 | 0.58 | 0.00 | 55 | 1013.9 |
| 20260507100105 | 10 | 5 | 4.8 | 8.0 | 0.00 | 0.58 | 0.00 | 55 | 1013.7 |
| 20260507094104 | 10 | 350 | 4.8 | 8.0 | 0.00 | 0.58 | 0.00 | 55 | 1013.7 |
| 20260507093604 | 10 | 29 | 4.8 | 9.7 | 0.00 | 0.58 | 0.00 | 55 | 1013.8 |
| 20260507092605 | 10 | 0 | 4.8 | 8.0 | 0.00 | 0.58 | 0.00 | 56 | 1013.8 |
| 20260507092105 | 10 | 9 | 1.6 | 4.8 | 0.00 | 0.58 | 0.00 | 57 | 1013.8 |
| 20260507091605 | 10 | 5 | 1.6 | 4.8 | 0.00 | 0.58 | 0.00 | 58 | 1013.8 |
| 20260507091105 | 10 | 5 | 1.6 | 4.8 | 0.00 | 0.58 | 0.00 | 60 | 1013.8 |
| 20260507090604 | 10 | 5 | 3.2 | 4.8 | 0.00 | 0.58 | 0.00 | 61 | 1013.7 |
| 20260507085604 | 10 | 5 | 3.2 | 4.8 | 0.00 | 0.58 | 0.00 | 62 | 1013.6 |
| 20260507085104 | 10 | 5 | 3.2 | 4.8 | 0.00 | 0.58 | 0.00 | 64 | 1013.6 |
| 20260507081604 | 11 | 21 | 3.2 | 4.8 | 0.00 | 0.58 | 0.00 | 72 | 1013.3 |
| 20260507080105 | 11 | 24 | 3.2 | 8.0 | 0.00 | 0.58 | 0.00 | 72 | 1013.0 |
| 20260507075604 | 11 | 355 | 4.8 | 9.7 | 0.00 | 0.58 | 0.00 | 72 | 1012.9 |
| 20260507074104 | 11 | 355 | 1.6 | 4.8 | 0.00 | 0.58 | 0.00 | 71 | 1012.9 |
| 20260507073105 | 11 | 355 | 1.6 | 4.8 | 0.00 | 0.58 | 0.00 | 71 | 1012.9 |
| 20260507072604 | 11 | 355 | 0.0 | 3.2 | 0.00 | 0.58 | 0.00 | 71 | 1012.9 |
| 20260507072104 | 11 | 355 | 3.2 | 4.8 | 0.00 | 0.58 | 0.00 | 71 | 1013.1 |
| 20260507071105 | 11 | 355 | 1.6 | 3.2 | 0.00 | 0.58 | 0.00 | 71 | 1013.2 |
| 20260507070604 | 11 | 355 | 1.6 | 4.8 | 0.00 | 0.58 | 0.00 | 70 | 1013.3 |
| 20260507070105 | 11 | 355 | 1.6 | 4.8 | 0.00 | 0.58 | 0.00 | 70 | 1013.3 |
| 20260507065104 | 11 | 0 | 3.2 | 4.8 | 0.00 | 0.58 | 0.00 | 70 | 1013.4 |
| 20260507064104 | 11 | 11 | 4.8 | 11.3 | 0.00 | 0.58 | 0.00 | 71 | 1013.3 |
| 20260507063104 | 11 | 9 | 1.6 | 4.8 | 0.00 | 0.58 | 0.00 | 71 | 1013.3 |
| 20260507062604 | 11 | 9 | 3.2 | 4.8 | 0.00 | 0.58 | 0.00 | 71 | 1013.4 |
| 20260507062104 | 11 | 12 | 3.2 | 4.8 | 0.00 | 0.58 | 0.00 | 71 | 1013.4 |
| 20260507061104 | 11 | 13 | 3.2 | 4.8 | 0.00 | 0.58 | 0.00 | 71 | 1013.4 |
| 20260507060605 | 11 | 15 | 3.2 | 11.3 | 0.00 | 0.58 | 0.00 | 71 | 1013.5 |
| 20260507060105 | 11 | 19 | 3.2 | 4.8 | 0.00 | 0.58 | 0.00 | 71 | 1013.5 |
| 20260507055604 | 11 | 21 | 4.8 | 9.7 | 0.00 | 0.58 | 0.00 | 71 | 1013.4 |
| 20260507054604 | 11 | 51 | 3.2 | 8.0 | 0.00 | 0.58 | 0.00 | 73 | 1013.2 |
| 20260507053604 | 12 | 53 | 3.2 | 8.0 | 0.00 | 0.58 | 0.00 | 75 | 1013.1 |
| 20260507052604 | 12 | 55 | 1.6 | 4.8 | 0.00 | 0.58 | 0.00 | 75 | 1013.1 |
| 20260507052104 | 12 | 58 | 3.2 | 4.8 | 0.00 | 0.58 | 0.00 | 76 | 1013.0 |
| 20260507051604 | 12 | 55 | 3.2 | 9.7 | 0.00 | 0.58 | 0.00 | 76 | 1012.9 |
| 20260507045604 | 12 | 4 | 4.8 | 14.5 | 0.00 | 0.58 | 0.00 | 76 | 1013.0 |
| 20260507045105 | 12 | 0 | 3.2 | 8.0 | 0.00 | 0.58 | 0.00 | 76 | 1012.9 |
| 20260507043604 | 12 | 325 | 1.6 | 4.8 | 0.00 | 0.58 | 0.00 | 76 | 1013.0 |
| 20260507043104 | 12 | 325 | 3.2 | 8.0 | 0.00 | 0.58 | 0.00 | 77 | 1013.1 |
| 20260507042104 | 12 | 326 | 3.2 | 4.8 | 0.00 | 0.58 | 0.00 | 76 | 1013.2 |
| 20260507041604 | 12 | 327 | 0.0 | 9.7 | 0.00 | 0.58 | 0.00 | 76 | 1013.1 |
| 20260507035604 | 12 | 324 | 4.8 | 12.9 | 0.00 | 0.58 | 0.58 | 76 | 1013.1 |
| 20260507035104 | 12 | 344 | 4.8 | 14.5 | 0.00 | 0.58 | 0.58 | 76 | 1012.9 |
| 20260507034604 | 12 | 320 | 4.8 | 9.7 | 0.00 | 0.58 | 0.58 | 76 | 1012.7 |
| 20260507033604 | 12 | 332 | 3.2 | 4.8 | 0.00 | 0.58 | 0.58 | 77 | 1012.7 |
| 20260507032105 | 12 | 322 | 8.0 | 14.5 | 0.00 | 0.58 | 0.58 | 77 | 1012.8 |
| 20260507030104 | 13 | 349 | 4.8 | 16.1 | 0.00 | 0.58 | 0.58 | 78 | 1012.8 |
| 20260507025104 | 13 | 340 | 4.8 | 9.7 | 0.00 | 0.58 | 0.58 | 78 | 1012.9 |
| 20260507024604 | 13 | 20 | 8.0 | 14.5 | 0.00 | 0.58 | 0.58 | 78 | 1012.6 |
| 20260507021106 | 13 | 323 | 3.2 | 8.0 | 0.00 | 0.58 | 0.58 | 78 | 1012.4 |
| 20260507020106 | 13 | 334 | 3.2 | 9.7 | 0.00 | 0.58 | 0.58 | 77 | 1012.6 |
| 20260507014606 | 13 | 328 | 4.8 | 14.5 | 0.00 | 0.58 | 0.58 | 77 | 1012.4 |
| 20260507014106 | 13 | 324 | 3.2 | 14.5 | 0.00 | 0.58 | 0.58 | 77 | 1012.3 |
| 20260507013606 | 13 | 307 | 4.8 | 14.5 | 0.00 | 0.58 | 0.58 | 77 | 1012.3 |
| 20260507013106 | 14 | 343 | 4.8 | 9.7 | 0.00 | 0.58 | 0.58 | 77 | 1012.1 |
| 20260507010106 | 14 | 327 | 0.0 | 8.0 | 0.00 | 0.58 | 0.58 | 77 | 1012.2 |
| 20260507005106 | 14 | 302 | 4.8 | 14.5 | 0.00 | 0.58 | 0.58 | 77 | 1012.5 |
| 20260507004605 | 15 | 325 | 8.0 | 16.1 | 0.00 | 0.58 | 0.58 | 77 | 1012.4 |
| 20260507004106 | 15 | 19 | 9.7 | 14.5 | 0.00 | 0.58 | 0.58 | 77 | 1012.0 |
| 20260507002106 | 15 | 308 | 4.8 | 11.3 | 0.00 | 0.58 | 0.58 | 77 | 1012.0 |
| 20260507001606 | 15 | 340 | 8.0 | 16.1 | 0.00 | 0.58 | 0.58 | 76 | 1011.8 |
| 20260507001105 | 15 | 318 | 3.2 | 19.3 | 0.00 | 0.58 | 0.58 | 77 | 1011.8 |
| 20260507000606 | 15 | 310 | 8.0 | 19.3 | 0.00 | 0.58 | 0.58 | 77 | 1011.8 |
| 20260507000105 | 15 | 337 | 4.8 | 19.3 | 0.00 | 0.58 | 0.58 | 79 | 1011.8 |
| 20260506235106 | 15 | 355 | 3.2 | 8.0 | 0.00 | 0.58 | 0.58 | 79 | 1011.6 |
| 20260506234105 | 16 | 346 | 1.6 | 11.3 | 0.00 | 0.58 | 0.58 | 80 | 1011.2 |
| 20260506233605 | 16 | 5 | 3.2 | 8.0 | 0.00 | 0.58 | 0.58 | 81 | 1010.9 |
| 20260506232605 | 16 | 344 | 3.2 | 4.8 | 0.00 | 0.58 | 0.58 | 81 | 1010.6 |
| 20260506225105 | 17 | 303 | 8.0 | 12.9 | 0.00 | 0.58 | 0.58 | 86 | 1010.3 |
| 20260506224605 | 17 | 236 | 3.2 | 8.0 | 0.00 | 0.58 | 0.58 | 87 | 1009.9 |
| 20260506224106 | 17 | 234 | 3.2 | 4.8 | 0.03 | 0.58 | 0.58 | 87 | 1010.0 |
| 20260506223605 | 17 | 233 | 1.6 | 4.8 | 0.03 | 0.58 | 0.58 | 87 | 1010.0 |
| 20260506223105 | 17 | 232 | 1.6 | 3.2 | 0.03 | 0.58 | 0.58 | 87 | 1009.9 |
| 20260506221105 | 17 | 232 | 1.6 | 3.2 | 0.03 | 0.58 | 0.58 | 87 | 1009.9 |
| 20260506220606 | 17 | 232 | 0.0 | 1.6 | 0.03 | 0.58 | 0.58 | 86 | 1009.8 |
| 20260506220105 | 17 | 232 | 1.6 | 4.8 | 0.03 | 0.58 | 0.58 | 86 | 1009.8 |
| 20260506215105 | 17 | 231 | 1.6 | 4.8 | 0.03 | 0.58 | 0.58 | 85 | 1009.9 |
| 20260506214105 | 17 | 237 | 3.2 | 11.3 | 0.00 | 0.56 | 0.56 | 84 | 1009.8 |
| 20260506213606 | 18 | 231 | 4.8 | 9.7 | 0.00 | 0.56 | 0.56 | 84 | 1009.5 |
| 20260506213106 | 18 | 256 | 1.6 | 9.7 | 0.00 | 0.56 | 0.56 | 84 | 1009.4 |
| 20260506212605 | 18 | 264 | 3.2 | 4.8 | 0.00 | 0.56 | 0.56 | 83 | 1009.4 |
| 20260506211605 | 18 | 287 | 1.6 | 9.7 | 0.00 | 0.56 | 0.56 | 82 | 1009.3 |
| 20260506211105 | 18 | 253 | 3.2 | 8.0 | 0.00 | 0.56 | 0.56 | 82 | 1009.3 |
| 20260506210606 | 18 | 241 | 3.2 | 4.8 | 0.00 | 0.56 | 0.56 | 82 | 1009.1 |
| 20260506204605 | 18 | 198 | 1.6 | 8.0 | 0.00 | 0.56 | 0.56 | 83 | 1008.9 |
| 20260506203606 | 18 | 183 | 6.4 | 11.3 | 0.00 | 0.56 | 0.56 | 82 | 1008.7 |
| 20260506203106 | 18 | 193 | 3.2 | 11.3 | 0.00 | 0.56 | 0.56 | 82 | 1008.7 |
| 20260506202605 | 18 | 177 | 8.0 | 12.9 | 0.00 | 0.56 | 0.56 | 82 | 1008.7 |
| 20260506202106 | 18 | 216 | 1.6 | 4.8 | 0.00 | 0.56 | 0.56 | 82 | 1008.7 |
| 20260506201606 | 18 | 208 | 3.2 | 4.8 | 0.00 | 0.56 | 0.56 | 82 | 1008.7 |
| 20260506200605 | 18 | 242 | 4.8 | 11.3 | 0.00 | 0.56 | 0.56 | 82 | 1008.7 |
| 20260506200105 | 18 | 212 | 4.8 | 9.7 | 0.00 | 0.56 | 0.56 | 83 | 1008.7 |
| 20260506194105 | 18 | 217 | 3.2 | 8.0 | 0.00 | 0.56 | 0.56 | 85 | 1008.7 |
| 20260506193105 | 17 | 249 | 4.8 | 12.9 | 0.00 | 0.56 | 0.56 | 85 | 1008.9 |
| 20260506192106 | 17 | 228 | 8.0 | 12.9 | 0.00 | 0.56 | 0.56 | 85 | 1008.8 |
| 20260506191606 | 17 | 217 | 4.8 | 12.9 | 0.00 | 0.56 | 0.56 | 86 | 1008.8 |
| 20260506191105 | 17 | 232 | 4.8 | 11.3 | 0.03 | 0.56 | 0.56 | 87 | 1008.8 |
| 20260506190106 | 17 | 231 | 3.2 | 14.5 | 0.03 | 0.56 | 0.56 | 87 | 1008.9 |
| 20260506185106 | 17 | 235 | 4.8 | 16.1 | 0.03 | 0.56 | 0.56 | 87 | 1009.1 |
| 20260506184106 | 17 | 222 | 3.2 | 11.3 | 0.03 | 0.56 | 0.56 | 87 | 1009.2 |
| 20260506183605 | 17 | 225 | 6.4 | 14.5 | 0.03 | 0.56 | 0.56 | 87 | 1009.2 |
| 20260506181605 | 17 | 238 | 8.0 | 14.5 | 0.03 | 0.56 | 0.56 | 86 | 1009.3 |
| 20260506181105 | 17 | 240 | 6.4 | 11.3 | 0.00 | 0.53 | 0.53 | 85 | 1009.3 |
| 20260506180605 | 17 | 228 | 4.8 | 14.5 | 0.00 | 0.53 | 0.53 | 85 | 1009.2 |
| 20260506180105 | 17 | 220 | 4.8 | 11.3 | 0.00 | 0.53 | 0.53 | 84 | 1009.2 |
| 20260506175605 | 17 | 219 | 4.8 | 11.3 | 0.00 | 0.53 | 0.53 | 83 | 1009.1 |
| 20260506175105 | 17 | 228 | 6.4 | 16.1 | 0.00 | 0.53 | 0.53 | 82 | 1009.1 |
| 20260506173606 | 17 | 190 | 9.7 | 16.1 | 0.00 | 0.53 | 0.53 | 80 | 1009.0 |
| 20260506170105 | 17 | 230 | 8.0 | 16.1 | 0.00 | 0.53 | 0.53 | 79 | 1008.9 |
| 20260506165105 | 17 | 215 | 9.7 | 22.5 | 0.00 | 0.53 | 0.53 | 79 | 1008.8 |
| 20260506164605 | 17 | 200 | 9.7 | 16.1 | 0.00 | 0.53 | 0.53 | 79 | 1008.8 |
| 20260506164105 | 17 | 220 | 9.7 | 19.3 | 0.00 | 0.53 | 0.53 | 80 | 1008.9 |
| 20260506163605 | 17 | 229 | 9.7 | 19.3 | 0.00 | 0.53 | 0.53 | 80 | 1008.9 |
| 20260506163106 | 17 | 215 | 6.4 | 12.9 | 0.00 | 0.53 | 0.53 | 80 | 1008.9 |
| 20260506162605 | 17 | 233 | 9.7 | 19.3 | 0.00 | 0.53 | 0.53 | 80 | 1008.9 |
| 20260506161605 | 17 | 210 | 8.0 | 19.3 | 0.00 | 0.53 | 0.53 | 81 | 1008.9 |
| 20260506160605 | 17 | 213 | 9.7 | 22.5 | 0.00 | 0.53 | 0.53 | 81 | 1008.8 |
| 20260506155605 | 16 | 235 | 9.7 | 19.3 | 0.00 | 0.53 | 0.53 | 82 | 1008.9 |
| 20260506154105 | 16 | 205 | 9.7 | 22.5 | 0.00 | 0.53 | 0.53 | 84 | 1009.1 |